Location: Ar Ranvel
(48.3000°N, 4.8833°W)
Time: 14:18:17
(UTC+00:00)

Resurs 01 Rocket - Pass Details

Date: 16 June 2021
Orbit: 635 x 643 km, 97.9° (Epoch: 30 July)

Event Time Altitude Azimuth Distance (km) Brightness Sun altitude
Exits shadow 21:03:38 - 174° (S) 2,885 4.5 -5.9°
Reaches altitude 10° 21:05:46 10° 178° (S) 2,018 3.8 -6.1°
Maximum altitude 21:10:07 61° 259° (W) 726 2.1 -6.6°
Drops below altitude 10° 21:14:30 10° 340° (NNW) 2,033 5.5 -7.1°
Sets 21:16:44 0° 344° (NNW) 2,947 6.4 -7.4°
